Tracking 19909 objects as of 21-Oct-2019
HD Live streaming from Space Station
objects crossing your sky now

DELTA 1 DEB

Track DELTA 1 DEB now!
10-day predictions


NORAD ID: 12171
Int'l Code: 1978-026L
Perigee: 862.4 km
Apogee: 916.8 km
Inclination: 99.0 °
Period: 102.6 minutes
Semi major axis: 7260 km
RCS: 0.8162 m2 (medium)
Launch date: March 5, 1978
Source: United States (US)
Launch site: AIR FORCE WESTERN TEST RANGE (AFWTR)

Note: This is SATELLITE DEBRIS
aabbcc
Your satellite tracking list
Your tracking list is empty




NASA's NSSDC Master Catalog

Two Line Element Set (TLE):
1 12171U 78026L   19293.73917385 -.00000151 +00000-0 -68150-4 0  9995
2 12171 099.0242 254.4985 0037443 359.3695 054.3938 14.03287730981373
Source of the keplerian elements: AFSPC